Caldwell, NJ

3:31 AM EDT on July 27, 2017 (GMT -0400)
Essex County

Weather History for KCDW - April, 2013

Change the Weather History Date:

Sunday, April 7, 2013

  Actual Average Record
Temperature  
Mean Temperature 49 °F -  
Max Temperature 63 °F 53 °F 77 °F (1991)
Min Temperature 37 °F 34 °F 22 °F (1950)
Degree Days  
Heating Degree Days 16    
Moisture  
Dew Point 31 °F    
Average Humidity 51    
Maximum Humidity 68    
Minimum Humidity 25    
Precipitation  
Precipitation 0.00 in - - ()
Sea Level Pressure  
Sea Level Pressure 30.17 in    
Wind  
Wind Speed 5 mph (SSW)    
Max Wind Speed 16 mph    
Max Gust Speed 23 mph    
Visibility 10 miles    
Events      
Averages and records for this station are not official NWS values.
T = Trace of Precipitation, MM = Missing Value Source: NWS Daily Summary

Daily Weather History Graph

Daily Weather History Graph

Search for Another Location

Airport or City:

Trip Planner

Search our weather history database for the weather conditions in past years. The results will help you decide how hot, cold, wet, or windy it might be!

Date:

Astronomy

Apr. 07, 2013 Rise Set
Actual Time 6:30 AM EDT 7:28 PM EDT
Civil Twilight 6:02 AM EDT 7:56 PM EDT
Nautical Twilight 5:29 AM EDT 8:29 PM EDT
Astronomical Twilight 4:54 AM EDT 9:04 PM EDT
Moon 4:47 AM EDT (4/7) 4:57 PM EDT (4/7)
Length of Visible Light 13h 54m
Length of Day
12h 58m
Waning Crescent, 8% of the Moon is Illuminated
Apr 7
Waning Crescent
Apr 10
New
Apr 18
First Quarter
Apr 25
Full
May 2
Last Quarter

Hourly Weather History & Observations

Time (EDT) Temp. Windchill Dew Point Humidity Pressure Visibility Wind Dir Wind Speed Gust Speed Precip Events Conditions
12:53 AM 39.9 °F 37.8 °F 25.0 °F 55% 30.32 in 10.0 mi SW 3.5 mph - N/A   Clear
1:53 AM 37.9 °F - 26.1 °F 62% 30.32 in 10.0 mi Calm Calm - N/A   Clear
2:53 AM 37.9 °F 35.5 °F 26.1 °F 62% 30.31 in 10.0 mi SSW 3.5 mph - N/A   Clear
3:53 AM 37.9 °F - 27.0 °F 65% 30.30 in 10.0 mi Calm Calm - N/A   Clear
4:53 AM 37.9 °F - 28.0 °F 68% 30.30 in 10.0 mi Calm Calm - N/A   Clear
5:53 AM 39.0 °F 34.8 °F 28.0 °F 65% 30.30 in 10.0 mi SSW 5.8 mph - N/A   Partly Cloudy
6:53 AM 39.0 °F - 28.9 °F 67% 30.31 in 10.0 mi Calm Calm - N/A   Scattered Clouds
7:53 AM 39.9 °F 36.7 °F 28.0 °F 63% 30.30 in 10.0 mi SW 4.6 mph - N/A   Partly Cloudy
8:53 AM 43.0 °F 40.3 °F 25.0 °F 49% 30.28 in 10.0 mi SSW 4.6 mph - N/A   Overcast
9:53 AM 45.0 °F 41.2 °F 25.0 °F 46% 30.27 in 10.0 mi Variable 6.9 mph - N/A   Scattered Clouds
10:53 AM 50.0 °F - 21.9 °F 33% 30.25 in 10.0 mi South 9.2 mph 19.6 mph N/A   Clear
11:53 AM 53.1 °F - 21.9 °F 30% 30.21 in 10.0 mi SSW 13.8 mph 23.0 mph N/A   Clear
12:53 PM 55.9 °F - 21.0 °F 26% 30.16 in 10.0 mi SW 8.1 mph 19.6 mph N/A   Clear
1:53 PM 59.0 °F - 23.0 °F 25% 30.13 in 10.0 mi SSW 8.1 mph - N/A   Clear
2:53 PM 61.0 °F - 28.0 °F 29% 30.08 in 10.0 mi SSE 8.1 mph 19.6 mph N/A   Clear
3:53 PM 59.0 °F - 39.0 °F 48% 30.04 in 10.0 mi ESE 16.1 mph 21.9 mph N/A   Clear
4:53 PM 59.0 °F - 39.9 °F 49% 30.02 in 10.0 mi SSE 6.9 mph - N/A   Clear
5:53 PM 61.0 °F - 37.0 °F 41% 30.01 in 10.0 mi SSW 9.2 mph - N/A   Mostly Cloudy
6:53 PM 61.0 °F - 37.9 °F 42% 30.01 in 10.0 mi SW 8.1 mph 16.1 mph 0.00 in   Scattered Clouds
7:53 PM 59.0 °F - 39.9 °F 49% 30.04 in 10.0 mi SSW 5.8 mph - N/A   Partly Cloudy
8:53 PM 57.0 °F - 41.0 °F 55% 30.03 in 10.0 mi SSW 5.8 mph - N/A   Clear
9:53 PM 55.0 °F - 42.1 °F 62% 30.04 in 10.0 mi SW 3.5 mph - N/A   Clear
10:53 PM 54.0 °F - 42.1 °F 64% 30.03 in 10.0 mi Variable 4.6 mph - N/A   Clear
11:53 PM 53.1 °F - 42.1 °F 66% 30.02 in 10.0 mi Variable 3.5 mph - N/A   Clear